pic not found

MONITORING PENGADAAN SECARA ELEKTRONIK

Bagian Pengadaan Barang dan Jasa
Sekretariat Daerah Kabupaten Magetan
Tahun Anggaran2025



MONITORING NON TENDER

Informasi

1. Data Non Tender merupakan Paket Non Tender dengan status "Paket Sudah Selesai" yang diambil dari SPSE .
2. Monitoring Non Tender digunakan untuk memastikan PPK telah menginputkan E-kontrak pada SPSE dan Penilaian Kinerja Penyedia pada SIKaP
3. Status Penilaian Kinerja = "Terisi" jika PPK telah melakukan penilaian kinerja pada aplikasi SIKaP.


Tim LPSE Kabupaten Magetan Last Update    2025-12-22
Showing 3,601-3,620 of 9,716 items.
#Nama SatkerKd NontenderKd RupNama PaketPaguHpsNilai KontrakSumber DanaTanggal Selesai NontenderNama PenyediaStatus Penilaian Kinerja
 
3601DINAS PETERNAKAN DAN PERIKANAN1288525546477685Pengadaan Jasa Tenaga Operasional dan Analis Benih Perikanan22,750,000022,750,000APBD2024-01-08 12:00:00HERU SULISTIYANI, S.Pi(not set)
3602DINAS PETERNAKAN DAN PERIKANAN1289725546476971Pengadaan Jasa Tenaga Pramubhakti22,750,000022,750,000APBD2024-01-08 12:00:00DEDI SETIAWAN(not set)
3603DINAS PETERNAKAN DAN PERIKANAN1288125546476948Pengadaan Jasa Tenaga Pengelola Teknis Perikanan Budidaya di KAD22,750,000022,750,000APBD2024-01-08 12:00:00SONTONG HARDIT SUKAMDANI(not set)
3604DINAS PETERNAKAN DAN PERIKANAN1292825546473801Pengadaan Jasa Tenaga Operasional BLP 48,750,00008,750,000APBD2024-01-08 12:00:00PUTRI WIKA AGUSTIA(not set)
3605DINAS PETERNAKAN DAN PERIKANAN1292725546473352Pengadaan Jasa Tenaga Operasional Rumah Tangga Produksi22,750,000022,750,000APBD2024-01-08 12:00:00RENI PUSPITASARI(not set)
3606DINAS PETERNAKAN DAN PERIKANAN1292625546472819Pengadaan Jasa Tenaga Operasional Penerbitan Rekomendasi Izin Usaha22,750,000022,750,000APBD2024-01-08 12:00:00SUPRASETIYO(not set)
3607DINAS PETERNAKAN DAN PERIKANAN1289825546471087Pengadaan Jasa Tenaga Operasional Laboratorium dan Klinik Hewan22,750,000022,750,000APBD2024-01-08 12:00:00NITA ANTIKA(not set)
3608DINAS PETERNAKAN DAN PERIKANAN1285225546470711Pengadaan Jasa Tenaga Operasional dan Kebersihan Rumah potong Hewan (RPH)26,260,000026,260,000APBD2024-01-08 12:00:00MAHFUT APRILIANTO(not set)
3609DINAS PETERNAKAN DAN PERIKANAN1285125546470377Pengadaan Jasa Tenaga Kebersihan dan Operasional Laboratorium dan Klinik Hewan26,260,000026,260,000APBD2024-01-08 12:00:00YUDHA ANDRIK KURNIAWAN(not set)
3610DINAS PETERNAKAN DAN PERIKANAN1285025546470160Pengadaan Jasa Tenaga Operasional dan Kebersihan Kolam Air Deras Pacalan26,260,000026,260,000APBD2024-01-08 12:00:00HERI APRILIYANTO PUJO SANTOSO(not set)
3611DINAS PETERNAKAN DAN PERIKANAN1287225546469985Pengadaan Jasa Tenaga Pengelola Perencanaan dan Pelaporan Usaha Tani22,750,000022,750,000APBD2024-01-08 12:00:00SYAHRI DUWI PRISTIADI(not set)
3612DINAS PETERNAKAN DAN PERIKANAN1284925546469970Pengadaan Jasa Tenaga Operasional dan Kebersihan Puskeswan26,260,000026,260,000APBD2024-01-08 12:00:00SUKARDI(not set)
3613DINAS PETERNAKAN DAN PERIKANAN1284825546469637Pengadaan Jasa Tenaga Operasional dan Kebersihan BLP 326,260,000026,260,000APBD2024-01-08 12:00:00ARIF SOLIKIN(not set)
3614DINAS PETERNAKAN DAN PERIKANAN1287125546469216Pengadaan Jasa Tenaga Operasional Sarana Pengembangan Usaha Perikanan8,750,00008,750,000APBD2024-01-08 12:00:00TATIK INDARWATI(not set)
3615DINAS PETERNAKAN DAN PERIKANAN1284725546469128Pengadaan Jasa Tenaga Pengelola Instalasi Ternak10,100,000010,100,000APBD2024-01-08 12:00:00BUDI PANGESTU(not set)
3616DINAS PETERNAKAN DAN PERIKANAN1287025546468877Pengadaan jasa Tenaga Operasional Perencanaan dan Pelaporan8,750,00008,750,000APBD2024-01-08 12:00:00WAHYU KARTIKA DEWI(not set)
3617DINAS PETERNAKAN DAN PERIKANAN1300925546468859Pengadaan Jasa Tenaga Operasional BLP 226,260,000026,260,000APBD2024-01-08 12:00:00SUKARDI(not set)
3618DINAS PETERNAKAN DAN PERIKANAN1293125546468595Pengadaan Jasa Tenaga Operasional BLP 126,260,000026,260,000APBD2024-01-08 12:00:00TARMUJI(not set)
3619DINAS PETERNAKAN DAN PERIKANAN1286925546468527Pengadaan Jasa Tenaga Pengelola Teknologi Informasi8,750,00008,750,000APBD2024-01-08 12:00:00ADMINNANTO PRIYAMBODO(not set)
3620DINAS PETERNAKAN DAN PERIKANAN1293025546468289Pengadaan Jasa Tenaga Operasional BBI 226,260,000026,260,000APBD2024-01-08 12:00:00SUTRISNO(not set)

MONITORING TENDER

Informasi

1. Data Tender merupakan Paket Tender dengan status "Paket Sudah Selesai" yang diambil dari SPSE .
2. Monitoring Tender digunakan untuk memastikan PPK telah menginputkan E-kontrak pada SPSE dan Penilaian Kinerja Penyedia pada SIKaP
3. Status Penilaian Kinerja = "Terisi" jika PPK telah melakukan penilaian kinerja pada aplikasi SIKaP.


Tim LPSE Kabupaten Magetan Last Update    2025-12-22
Showing 1-20 of 89 items.
#Kd TenderTahun AnggaranNama SatkerKd RupNama PaketPaguHpsSumber DanaNilai KontrakNama PenyediaTgl Penetapan PemenangStatus Penilaian Kinerja
1100868530002025DINAS PEKERJAAN UMUM DAN PENATAAN RUANG54689775Pembangunan Embung Sidowayah650000000649141000APBD619648601WIJAYA KARYA SEJATI2025-10-10 17:00:00(not set)
2100868510002025DINAS PEKERJAAN UMUM DAN PENATAAN RUANG54689777Pembangunan Embung Kawedanan, Terung500000000497008000APBD472778577CV. Surya Galaxy2025-10-10 17:00:00(not set)
3100850540002025DINAS PEKERJAAN UMUM DAN PENATAAN RUANG60291185Pemeliharaan Berkala Jalan Tebon-Stasiun Magetan13150000001307940000APBDP(not set)(not set)2025-10-03 11:30:00(not set)
4100815940002025DINAS PEKERJAAN UMUM DAN PENATAAN RUANG60296716Pembangunan Sumur Air Tanah Dalam SDKMG Desa Tladan dan Desa Botok, Beserta Peralatan dan Pemasangan Pompa13000000001300000000APBD1268000000CV. BUDI LUHUR2025-10-01 14:00:00(not set)
5100804910002025DINAS PEKERJAAN UMUM DAN PENATAAN RUANG60296695Pembangunan Sumur Air Tanah Dalam SDKMG Desa Tapen dan Desa Tambakmas, Beserta Peralatan dan Pemasangan Pompa11000000001100000000APBD1075000000CV. ROHMAT2025-10-01 14:00:00(not set)
6100800490002025DINAS PEKERJAAN UMUM DAN PENATAAN RUANG60461662Rehabilitasi Jaringan Irigasi DI Sadon560100000555348000APBD444278400PURWOTO2025-09-29 16:00:00(not set)
7100233980002025DINAS KESEHATAN54938336Jasa Konsultansi Pengawasan Pembangunan Gedung Rumah Sakit (Puskesmas Panekan)300000000299977500APBD240481500PT. PILAREMPAT CONSULTAN2025-05-28 16:00:00(not set)
8120832552024DINAS PENDIDIKAN, KEPEMUDAAN DAN OLAHRAGA47581846Jasa Konsultansi Pengawasan Pembangunan Sirkuit Kabupaten Magetan350157300349999983APBD317922038PT. SKALA PILAR LIMA2024-07-30 15:30:00(not set)
9120822552024BADAN PERENCANAAN PEMBANGUNAN, PENELITIAN DAN PENGEMBANGAN DAERAH51431929Jasa Konsultansi Mitigasi Perubahan Iklim Melalui Identifikasi Karbon200000000198168300APBD166722000PT TOTAL CIPTA PERSADA2024-07-25 16:00:00(not set)
10109922552023DINAS PEKERJAAN UMUM DAN PENATAAN RUANG44138092Pemeliharaan Berkala Jalan Genengan - Takeran18000000001791317000APBD(not set)(not set)2023-11-10 14:30:00(not set)
11109842552023KECAMATAN MAOSPATI40341941BELANJA MODAL BANGUNAN GEDUNG TEMPAT KERJA LAINNYA PEMBANGUNAN LANJUTAN GEDUNG KEBUDAYAAN240000000237931000APBD190344800CV. VAMROZ BINTANG PRATAMA2023-10-11 14:30:00(not set)
12109512552023DINAS KESEHATAN43956365Pembangunan Puskesmas Pembantu Ngelang600000000447418000APBD357934400SALSA MANDIRI2023-09-22 16:30:00(not set)
13109722552023DINAS PENDIDIKAN, KEPEMUDAAN DAN OLAHRAGA43870656Jasa Konsultansi Perencanaan dan Penyusunan Masterplan Pembangunan Sirkuit Kabupaten Magetan800000000776178600APBD776056500CV. CIPTA PURNAMA MANDIRI2023-09-21 19:00:00(not set)
14108652552023DINAS PENDIDIKAN, KEPEMUDAAN DAN OLAHRAGA42710723Rehabilitasi Ruang Kelas SMPN 1 Kawedanan546000000543734000APBD434987200ESTETIKA CV2023-09-15 15:00:00(not set)
15108662552023DINAS PENDIDIKAN, KEPEMUDAAN DAN OLAHRAGA42708925Rehabilitasi Ruang Kelas SMPN 1 Nguntoronadi700000000697732000APBD558185600CV.DEA KONTRAKTOR2023-09-15 15:00:00(not set)
16108672552023DINAS PENDIDIKAN, KEPEMUDAAN DAN OLAHRAGA42710780Rehabilitasi Ruang Kelas SMPN 1 Plaosan500000000499724000APBD399779200ESTETIKA CV2023-09-08 15:00:00(not set)
17108682552023DINAS PENDIDIKAN, KEPEMUDAAN DAN OLAHRAGA42710943Rehabilitasi Ruang Kelas SMPN 4 Magetan700000000698736000APBD558988800CV. Jalu Mampang2023-09-08 15:00:00(not set)
18109702552023DINAS PETERNAKAN DAN PERIKANAN40159675Pembangunan Konstruksi KSL Lanjutan1100000000904700000APBD741379925CV KRISNA DWI KARYA2023-08-29 17:00:00(not set)
19109502552023DINAS PEKERJAAN UMUM DAN PENATAAN RUANG43049995Pembangunan Plaza Ndoyo12500000001249640000APBD1083394356CV. BUDI LUHUR2023-08-23 15:15:00(not set)
20109622552023DINAS PEKERJAAN UMUM DAN PENATAAN RUANG39676632Rehabilitasi Jalan Karas-Kuwon452000000445467000APBD356373600SALSA MANDIRI2023-08-15 16:30:00(not set)